(111257) = 2000 SP357 = 2001 XY20

Discovered at Socorro on 2001-12-09 by LINEAR.

Orbit

Orbit type: Main Belt

Note: WebGL enabled browser required.

epoch2024-03-31.0
epoch JD2460400.5
perihelion date2025-02-27.04764
perihelion JD2460733.54764
argument of perihelion (°)12.08091
ascending node (°)79.98631
inclination (°)17.81653
eccentricity0.0702070
perihelion distance (AU)3.0134643
Tisserand w.r.t. Jupiter3.1
ΔV w.r.t. Earth (km/sec)12.1
semimajor axis (AU)3.2410057
mean anomaly (°)303.74119
mean daily motion (°/day)0.16892120
aphelion distance (AU)3.469
period (years)5.83
P-vector [x]-0.02618733
P-vector [y]0.88981106
P-vector [z]0.45557711
Q-vector [x]-0.95316689
Q-vector [y]-0.15958940
Q-vector [z]0.25691263
absolute magnitude14.28
phase slope0.15
uncertainty0
referenceMPEC 2024-C163
observations used1877
oppositions18
arc length (days)8472
first opposition used2000
last opposition used2023
residual rms (arc-secs)0.61
perturbers coarse indicatorM-v
perturbers precise indicator003Ek
first observation date used2000-09-28.0
last observation date used2023-12-09.0
computer nameMPCLINUX
JD of orbit computation2456731.486489
perihelion JD uncertainty (days)4.0330E-04
argument of perihelion uncertainty (°)7.7387E-05
ascending node uncertainty (°)2.0148E-05
inclination uncertainty (°)7.4433E-06
eccentricity uncertainty 6.1999E-08
perihelion distance uncertainty (AU)2.0757E-07
Minimum Orbit Intersection Distances (in AU)
for orbit epoch: 2460200.5, reference: E2024-CG3
Mercury2.70095
Venus2.29265
Earth2.02846
Mars1.42915
Jupiter1.79836
Saturn6.04254
Uranus15.4102
Neptune26.7846

Observations

1910 total observations over interval: 2000 09 28.34893 – 2023 12 09.116890
These data are available for download (format description).

Date (UT) J2000 RA J2000 Dec Magn Location Ref
2000 09 28.34893 01 54 57.23 -12 42 54.7 18.0 R 699 – Lowell Observatory-LONEOS MPS 27863
2000 09 28.36748 01 54 56.45 -12 42 57.5   699 – Lowell Observatory-LONEOS MPS 27863
2000 09 28.38608 01 54 55.59 -12 43 04.4   699 – Lowell Observatory-LONEOS MPS 27863
2000 09 28.40471 01 54 54.99 -12 43 08.7   699 – Lowell Observatory-LONEOS MPS 27863
2000 10 05.31382 01 50 01.59 -13 10 16.5 18.3   704 – Lincoln Laboratory ETS, New Mexico MPS 27863
2000 10 05.32905 01 50 00.89 -13 10 19.2 18.5   704 – Lincoln Laboratory ETS, New Mexico MPS 27863
2000 10 05.34424 01 50 00.12 -13 10 22.8 18.9   704 – Lincoln Laboratory ETS, New Mexico MPS 27863
2000 10 05.35943 01 49 59.39 -13 10 26.4 19.0   704 – Lincoln Laboratory ETS, New Mexico MPS 27863
2000 10 05.37466 01 49 58.72 -13 10 29.1 18.6   704 – Lincoln Laboratory ETS, New Mexico MPS 27863
2000 10 27.24202 01 32 30.98 -13 47 54.1 18.7   704 – Lincoln Laboratory ETS, New Mexico MPS 43528
2000 10 27.27117 01 32 29.67 -13 47 53.1 18.7   704 – Lincoln Laboratory ETS, New Mexico MPS 43528
2000 10 27.28668 01 32 28.89 -13 47 53.9 18.7   704 – Lincoln Laboratory ETS, New Mexico MPS 43528
2001 11 12.43061 07 16 48.55 +26 44 13.0 19.4   704 – Lincoln Laboratory ETS, New Mexico MPS 45089
2001 11 12.44499 07 16 48.70 +26 44 17.9 19.7   704 – Lincoln Laboratory ETS, New Mexico MPS 45089
2001 11 12.45940 07 16 48.69 +26 44 23.2 19.8   704 – Lincoln Laboratory ETS, New Mexico MPS 45089
2001 11 12.47380 07 16 48.71 +26 44 28.2 19.6   704 – Lincoln Laboratory ETS, New Mexico MPS 45089
2001 11 12.48819 07 16 48.76 +26 44 34.1 19.4   704 – Lincoln Laboratory ETS, New Mexico MPS 45089
2001 12 09.31692 07 08 17.48 +29 46 11.5 18.4   704 – Lincoln Laboratory ETS, New Mexico MPS 45089
2001 12 09.33182 07 08 16.84 +29 46 17.9 19.0   704 – Lincoln Laboratory ETS, New Mexico MPS 45089
2001 12 09.34672 07 08 16.20 +29 46 25.0 18.5   704 – Lincoln Laboratory ETS, New Mexico MPS 45089
2001 12 09.36164 07 08 15.60 +29 46 31.6 18.7   704 – Lincoln Laboratory ETS, New Mexico MPS 45089
2001 12 09.37660 07 08 14.98 +29 46 38.0 18.6   704 – Lincoln Laboratory ETS, New Mexico MPS 45089
2001 12 13.28028 07 05 29.11 +30 15 18.6 18.7   704 – Lincoln Laboratory ETS, New Mexico MPS 45089
2001 12 13.31049 07 05 27.65 +30 15 31.7 19.1   704 – Lincoln Laboratory ETS, New Mexico MPS 45089
2001 12 13.32557 07 05 27.11 +30 15 37.1 18.8   704 – Lincoln Laboratory ETS, New Mexico MPS 45089
2001 12 13.34064 07 05 26.30 +30 15 43.8 19.3   704 – Lincoln Laboratory ETS, New Mexico MPS 45089
2001 12 17.31278 07 02 17.40 +30 44 39.6 18.4   704 – Lincoln Laboratory ETS, New Mexico MPS 45089
2001 12 17.32856 07 02 16.61 +30 44 46.7 18.9   704 – Lincoln Laboratory ETS, New Mexico MPS 45089
2001 12 17.34472 07 02 15.77 +30 44 53.6 18.8   704 – Lincoln Laboratory ETS, New Mexico MPS 45089
2001 12 17.36011 07 02 14.94 +30 45 00.3 18.8   704 – Lincoln Laboratory ETS, New Mexico MPS 45089
2001 12 17.37556 07 02 14.21 +30 45 07.2 19.0   704 – Lincoln Laboratory ETS, New Mexico MPS 45089
2001 12 18.26015 07 01 29.97 +30 51 27.9 18.4   644 – Palomar Mountain/NEAT MPS 46762
2001 12 18.28176 07 01 28.85 +30 51 37.3 18.6   644 – Palomar Mountain/NEAT MPS 46762
2001 12 18.29972 07 01 27.84 +30 51 45.3 17.9   704 – Lincoln Laboratory ETS, New Mexico MPS 45089
2001 12 18.30137 07 01 27.86 +30 51 45.6 18.5   704 – Lincoln Laboratory ETS, New Mexico MPS 45089
2001 12 18.30216 07 01 27.78 +30 51 46.2 18.3   644 – Palomar Mountain/NEAT MPS 46762
2001 12 18.31496 07 01 27.11 +30 51 53.4 18.8   704 – Lincoln Laboratory ETS, New Mexico MPS 45089
2001 12 18.33018 07 01 26.23 +30 51 58.8 18.6   704 – Lincoln Laboratory ETS, New Mexico MPS 45089
2001 12 18.33353 07 01 26.10 +30 52 00.3 19.0   704 – Lincoln Laboratory ETS, New Mexico MPS 45089
2001 12 18.34541 07 01 25.44 +30 52 05.5 18.4   704 – Lincoln Laboratory ETS, New Mexico MPS 45089
2001 12 18.34953 07 01 25.30 +30 52 07.1 18.8   704 – Lincoln Laboratory ETS, New Mexico MPS 45089
2001 12 18.36064 07 01 24.63 +30 52 12.1 18.3   704 – Lincoln Laboratory ETS, New Mexico MPS 45089
2001 12 18.36603 07 01 24.41 +30 52 13.7 18.8   704 – Lincoln Laboratory ETS, New Mexico MPS 45089
2001 12 19.30183 07 00 36.49 +30 58 55.1 18.2   644 – Palomar Mountain/NEAT MPS 46762
2001 12 19.31241 07 00 35.94 +30 58 59.7 18.3   644 – Palomar Mountain/NEAT MPS 46762
2001 12 19.33586 07 00 34.69 +30 59 09.7 18.2   644 – Palomar Mountain/NEAT MPS 46762
2001 12 20.37170 06 59 40.40 +31 06 31.6 18.2   704 – Lincoln Laboratory ETS, New Mexico MPS 46762
2001 12 20.38743 06 59 39.56 +31 06 38.6 18.7   704 – Lincoln Laboratory ETS, New Mexico MPS 46762
2001 12 20.39007 06 59 39.44 +31 06 40.9 18.5   704 – Lincoln Laboratory ETS, New Mexico MPS 46762
2001 12 20.40272 06 59 38.74 +31 06 44.6 18.6   704 – Lincoln Laboratory ETS, New Mexico MPS 46762
2001 12 20.40521 06 59 38.62 +31 06 46.2 18.6   704 – Lincoln Laboratory ETS, New Mexico MPS 46762
2001 12 20.41891 06 59 37.84 +31 06 51.5 18.4   704 – Lincoln Laboratory ETS, New Mexico MPS 46762
2001 12 20.42116 06 59 37.91 +31 06 52.6 18.9   704 – Lincoln Laboratory ETS, New Mexico MPS 46762
2001 12 20.43411 06 59 37.04 +31 06 57.8 18.5   704 – Lincoln Laboratory ETS, New Mexico MPS 46762
2001 12 20.43641 06 59 36.85 +31 06 58.5 19.0   704 – Lincoln Laboratory ETS, New Mexico MPS 46762
2001 12 22.29242 06 57 57.55 +31 19 58.8 18.4   704 – Lincoln Laboratory ETS, New Mexico MPS 46762
2001 12 22.30752 06 57 56.73 +31 20 05.4 18.6   704 – Lincoln Laboratory ETS, New Mexico MPS 46762
2001 12 22.32263 06 57 55.89 +31 20 11.7 18.6   704 – Lincoln Laboratory ETS, New Mexico MPS 46762
2001 12 22.35286 06 57 54.19 +31 20 24.6 18.4   704 – Lincoln Laboratory ETS, New Mexico MPS 46762
2002 01 04.49085 06 45 15.27 +32 44 05.6 18.6   644 – Palomar Mountain/NEAT MPS 46762
2002 01 04.52023 06 45 13.52 +32 44 15.3 18.6   644 – Palomar Mountain/NEAT MPS 46762
2002 01 04.56653 06 45 10.74 +32 44 30.8 18.9   644 – Palomar Mountain/NEAT MPS 46762
2002 02 03.10968 06 21 22.09 +34 34 47.6 19.4   644 – Palomar Mountain/NEAT MPS 55174
2002 02 03.13048 06 21 21.42 +34 34 49.9 19.6   644 – Palomar Mountain/NEAT MPS 55174
2002 02 03.15282 06 21 20.75 +34 34 52.8 19.2   644 – Palomar Mountain/NEAT MPS 55174
2002 02 08.24930 06 19 10.59 +34 43 19.9 20.0   704 – Lincoln Laboratory ETS, New Mexico MPS 55174
2002 02 08.26357 06 19 10.18 +34 43 21.4 20.2   704 – Lincoln Laboratory ETS, New Mexico MPS 55174
2002 02 08.27783 06 19 09.93 +34 43 22.5 19.8   704 – Lincoln Laboratory ETS, New Mexico MPS 55174
2002 02 08.29235 06 19 09.53 +34 43 23.4 20.3   704 – Lincoln Laboratory ETS, New Mexico MPS 55174
2003 01 27.39790 13 21 18.17 +14 28 46.7 19.1   704 – Lincoln Laboratory ETS, New Mexico MPS 81459
2003 01 27.41314 13 21 18.41 +14 28 50.2 18.8   704 – Lincoln Laboratory ETS, New Mexico MPS 81459
2003 01 27.42823 13 21 18.76 +14 28 55.1 19.2   704 – Lincoln Laboratory ETS, New Mexico MPS 81459
2003 01 27.44361 13 21 19.08 +14 29 00.1 19.6   704 – Lincoln Laboratory ETS, New Mexico MPS 81459
2003 03 08.36466 13 16 56.86 +18 20 25.5 18.7   704 – Lincoln Laboratory ETS, New Mexico MPS 74158
2003 03 08.37753 13 16 56.45 +18 20 29.8 19.3   704 – Lincoln Laboratory ETS, New Mexico MPS 74158
2003 03 08.39050 13 16 55.96 +18 20 34.2 19.3   704 – Lincoln Laboratory ETS, New Mexico MPS 74158
2003 03 08.40362 13 16 55.57 +18 20 39.5 19.2   704 – Lincoln Laboratory ETS, New Mexico MPS 74158
2003 03 08.41665 13 16 55.12 +18 20 44.3 18.8   704 – Lincoln Laboratory ETS, New Mexico MPS 74158
2003 03 13.32791 13 14 03.77 +18 50 04.5 19.2   704 – Lincoln Laboratory ETS, New Mexico MPS 74158
2003 03 13.34239 13 14 03.29 +18 50 08.1 19.2   704 – Lincoln Laboratory ETS, New Mexico MPS 74158
2003 03 13.35644 13 14 02.79 +18 50 11.8 19.5   704 – Lincoln Laboratory ETS, New Mexico MPS 74158
2003 03 13.37049 13 14 02.24 +18 50 17.2 19.3   704 – Lincoln Laboratory ETS, New Mexico MPS 74158
2003 03 26.29947 13 04 53.58 +19 54 26.1 18.8   704 – Lincoln Laboratory ETS, New Mexico MPS 76065
2003 03 26.31103 13 04 53.01 +19 54 29.0 19.0   704 – Lincoln Laboratory ETS, New Mexico MPS 76065
